Location: Montbazon
(47.2835°N, 0.6999°E)
Time: 18:20:17
(UTC+00:00)

Meteor 2-5 Rocket - Pass Details

Date: 08 November 2025
Orbit: 832 x 911 km, 81.2° (Epoch: 10 December)

Event Time Altitude Azimuth Distance (km) Brightness Sun altitude
Rises 05:35:01 0° 207° (SSW) 3,528 6.8 -13.1°
Reaches altitude 10° 05:37:35 10° 214° (SSW) 2,587 6.0 -12.7°
Maximum altitude 05:43:16 48° 287° (WNW) 1,173 4.0 -11.8°
Drops below altitude 10° 05:48:55 10° 1° (N) 2,568 6.1 -10.8°
Sets 05:51:28 0° 8° (N) 3,501 6.9 -10.4°
